Location: Killam
(52.7910°N, 111.8608°W)
Time: 06:37:26
(UTC+00:00)

XW-2F - Visible Passes

Search period start: 06 December 2023 00:00
Search period end: 16 December 2023 00:00
Orbit: 397 x 404 km, 97.4° (Epoch: 05 December)

Date Brightness Start Highest point End Pass type
(mag) Time Alt. Az. Time Alt. Az. Time Alt. Az.
06 Dec ? 13:40:10 10° ENE 13:40:58 11° E 13:41:44 10° ESE visible
07 Dec ? 14:20:05 10° NNE 14:22:53 30° E 14:25:40 10° SSE visible
09 Dec ? 14:11:17 10° NE 14:13:53 23° E 14:16:27 10° SSE visible
11 Dec ? 14:02:03 10° NE 14:04:19 18° E 14:06:34 10° SE visible
12 Dec ? 14:42:19 10° NNE 14:45:24 55° ESE 14:48:26 10° S visible
13 Dec ? 13:52:23 10° NE 13:54:10 14° E 13:55:56 10° SE visible
14 Dec ? 14:32:03 10° NNE 14:35:01 40° E 14:37:57 10° S visible
15 Dec ? 13:42:38 10° ENE 13:43:27 11° E 13:44:15 10° ESE visible
